| time (UTC) | temp F | wind direction | speed MPH | gust MPH | rain 1hr in | rain 24hr in | rain mn in | humidity % | barometer mb |
| 20260507064306 | 56 | 26 | 2.0 | 4.0 | 0.00 | 0.58 | 0.02 | 76 | 1011.8 |
| 20260507063305 | 55 | 18 | 2.0 | 4.0 | 0.00 | 0.61 | 0.02 | 78 | 1011.9 |
| 20260507062306 | 55 | 0 | 1.0 | 4.0 | 0.00 | 0.64 | 0.02 | 80 | 1011.9 |
| 20260507061305 | 54 | 59 | 2.0 | 4.0 | 0.00 | 0.67 | 0.02 | 80 | 1011.8 |
| 20260507060304 | 55 | 104 | 3.0 | 7.0 | 0.00 | 0.69 | 0.02 | 80 | 1011.8 |
| 20260507055306 | 54 | 159 | 4.0 | 10.0 | 0.00 | 0.69 | 0.02 | 81 | 1011.6 |
| 20260507054308 | 54 | 52 | 3.0 | 7.0 | 0.00 | 0.71 | 0.02 | 81 | 1011.6 |
| 20260507053305 | 53 | 103 | 3.0 | 8.0 | 0.00 | 0.71 | 0.02 | 81 | 1011.5 |
| 20260507052306 | 53 | 92 | 2.0 | 5.0 | 0.00 | 0.72 | 0.02 | 84 | 1011.5 |
| 20260507051305 | 53 | 65 | 3.0 | 7.0 | 0.00 | 0.75 | 0.02 | 84 | 1011.6 |
| 20260507045306 | 53 | 34 | 2.0 | 4.0 | 0.00 | 0.78 | 0.02 | 86 | 1011.5 |
| 20260507043302 | 53 | 70 | 3.0 | 7.0 | 0.00 | 0.80 | 0.02 | 87 | 1011.5 |
| 20260507042307 | 53 | 60 | 2.0 | 4.0 | 0.00 | 0.80 | 0.02 | 88 | 1011.4 |
| 20260507041302 | 52 | 30 | 2.0 | 4.0 | 0.00 | 0.80 | 0.02 | 88 | 1011.2 |
| 20260507040301 | 52 | 63 | 1.0 | 3.0 | 0.00 | 0.80 | 0.02 | 90 | 1011.3 |
| 20260507034300 | 53 | 23 | 2.0 | 4.0 | 0.00 | 0.80 | 0.02 | 88 | 1011.2 |
| 20260507033259 | 53 | 61 | 2.0 | 5.0 | 0.00 | 0.80 | 0.02 | 86 | 1011.2 |
| 20260507032258 | 53 | 71 | 4.0 | 8.0 | 0.00 | 0.80 | 0.02 | 85 | 1011.1 |
| 20260507031257 | 53 | 69 | 2.0 | 4.0 | 0.00 | 0.80 | 0.02 | 86 | 1011.0 |
| 20260507030257 | 53 | 57 | 3.0 | 5.0 | 0.00 | 0.80 | 0.02 | 86 | 1010.9 |
| 20260507025257 | 53 | 49 | 3.0 | 6.0 | 0.00 | 0.80 | 0.02 | 87 | 1010.6 |
| 20260507024258 | 53 | 36 | 3.0 | 8.0 | 0.00 | 0.80 | 0.02 | 86 | 1010.7 |
| 20260507023258 | 53 | 71 | 4.0 | 8.0 | 0.00 | 0.80 | 0.02 | 86 | 1010.7 |
| 20260507022257 | 53 | 79 | 5.0 | 9.0 | 0.00 | 0.80 | 0.02 | 86 | 1010.7 |
| 20260507020257 | 52 | 60 | 3.0 | 7.0 | 0.00 | 0.80 | 0.02 | 87 | 1010.8 |
| 20260507015257 | 52 | 46 | 4.0 | 9.0 | 0.00 | 0.80 | 0.02 | 88 | 1010.8 |
| 20260507014259 | 52 | 58 | 3.0 | 5.0 | 0.00 | 0.80 | 0.02 | 88 | 1010.8 |
| 20260507013257 | 52 | 5 | 5.0 | 10.0 | 0.01 | 0.80 | 0.02 | 88 | 1010.6 |
| 20260507011333 | 52 | 101 | 3.0 | 4.0 | 0.02 | 0.80 | 0.02 | 88 | 1010.5 |
| 20260507005257 | 52 | 53 | 3.0 | 9.0 | 0.02 | 0.80 | 0.02 | 89 | 1010.6 |
| 20260507003255 | 52 | 51 | 3.0 | 8.0 | 0.01 | 0.80 | 0.01 | 87 | 1010.9 |
| 20260507001254 | 53 | 26 | 2.0 | 5.0 | 0.00 | 0.79 | 0.00 | 86 | 1010.8 |
| 20260507000255 | 53 | 33 | 6.0 | 11.0 | 0.00 | 0.79 | 0.00 | 85 | 1010.8 |
| 20260506235255 | 53 | 89 | 5.0 | 10.0 | 0.00 | 0.79 | 0.00 | 85 | 1010.7 |
| 20260506234255 | 52 | 101 | 7.0 | 11.0 | 0.00 | 0.79 | 0.00 | 86 | 1010.8 |
| 20260506233254 | 52 | 71 | 4.0 | 9.0 | 0.00 | 0.80 | 0.00 | 87 | 1010.8 |
| 20260506232254 | 52 | 53 | 4.0 | 10.0 | 0.00 | 0.80 | 0.00 | 87 | 1010.8 |
| 20260506231304 | 52 | 70 | 4.0 | 8.0 | 0.00 | 0.82 | 0.00 | 87 | 1010.9 |
| 20260506230307 | 52 | 87 | 3.0 | 7.0 | 0.00 | 0.82 | 0.00 | 88 | 1010.8 |
| 20260506225255 | 52 | 50 | 2.0 | 5.0 | 0.00 | 0.83 | 0.00 | 88 | 1010.9 |
| 20260506224255 | 53 | 26 | 5.0 | 11.0 | 0.00 | 0.84 | 0.00 | 85 | 1011.0 |
| 20260506223252 | 53 | 88 | 6.0 | 12.0 | 0.00 | 0.87 | 0.00 | 85 | 1010.9 |
| 20260506222252 | 53 | 98 | 4.0 | 10.0 | 0.00 | 0.87 | 0.00 | 85 | 1011.0 |
| 20260506220253 | 53 | 67 | 1.0 | 3.0 | 0.00 | 0.87 | 0.00 | 86 | 1011.1 |
| 20260506215255 | 53 | 80 | 2.0 | 3.0 | 0.00 | 0.87 | 0.87 | 85 | 1010.9 |
| 20260506214252 | 53 | 73 | 2.0 | 4.0 | 0.00 | 0.87 | 0.87 | 85 | 1010.8 |
| 20260506213251 | 53 | 71 | 4.0 | 7.0 | 0.00 | 0.87 | 0.87 | 86 | 1010.9 |
| 20260506212251 | 53 | 91 | 3.0 | 6.0 | 0.00 | 0.87 | 0.87 | 86 | 1010.9 |
| 20260506210252 | 53 | 72 | 3.0 | 9.0 | 0.00 | 0.87 | 0.87 | 84 | 1010.9 |
| 20260506205251 | 53 | 61 | 7.0 | 12.0 | 0.00 | 0.87 | 0.87 | 83 | 1010.8 |
| 20260506204252 | 53 | 107 | 6.0 | 12.0 | 0.00 | 0.87 | 0.87 | 84 | 1010.7 |
| 20260506202251 | 53 | 152 | 7.0 | 10.0 | 0.00 | 0.87 | 0.87 | 86 | 1010.7 |
| 20260506201247 | 53 | 148 | 5.0 | 13.0 | 0.00 | 0.87 | 0.87 | 86 | 1010.8 |
| 20260506200247 | 53 | 141 | 3.0 | 8.0 | 0.00 | 0.87 | 0.87 | 88 | 1010.6 |
| 20260506195247 | 53 | 76 | 3.0 | 7.0 | 0.02 | 0.87 | 0.87 | 88 | 1010.5 |
| 20260506194247 | 54 | 47 | 4.0 | 12.0 | 0.03 | 0.87 | 0.87 | 88 | 1010.5 |
| 20260506192247 | 55 | 85 | 4.0 | 8.0 | 0.08 | 0.87 | 0.87 | 93 | 1010.5 |
| 20260506191247 | 56 | 105 | 2.0 | 4.0 | 0.09 | 0.87 | 0.87 | 94 | 1010.3 |
| 20260506190247 | 55 | 30 | 1.0 | 4.0 | 0.10 | 0.87 | 0.86 | 93 | 1010.2 |
| 20260506185247 | 56 | 288 | 1.0 | 3.0 | 0.10 | 0.85 | 0.85 | 93 | 1010.3 |
| 20260506184246 | 56 | 259 | 1.0 | 3.0 | 0.09 | 0.83 | 0.83 | 93 | 1010.0 |
| 20260506183250 | 56 | 265 | 2.0 | 4.0 | 0.09 | 0.80 | 0.80 | 92 | 1009.8 |
| 20260506182245 | 56 | 124 | 3.0 | 8.0 | 0.12 | 0.79 | 0.78 | 92 | 1009.4 |
| 20260506181245 | 56 | 227 | 2.0 | 7.0 | 0.10 | 0.77 | 0.77 | 92 | 1009.4 |
| 20260506175246 | 56 | 61 | 2.0 | 7.0 | 0.08 | 0.75 | 0.75 | 91 | 1007.9 |
| 20260506174245 | 56 | 78 | 3.0 | 7.0 | 0.15 | 0.75 | 0.75 | 90 | 1007.8 |
| 20260506173245 | 57 | 96 | 3.0 | 9.0 | 0.12 | 0.71 | 0.70 | 88 | 1007.6 |
| 20260506172244 | 58 | 87 | 5.0 | 8.0 | 0.08 | 0.67 | 0.67 | 86 | 1007.6 |
| 20260506171244 | 58 | 94 | 5.0 | 11.0 | 0.08 | 0.67 | 0.67 | 87 | 1007.2 |
| 20260506170245 | 58 | 86 | 2.0 | 4.0 | 0.08 | 0.68 | 0.67 | 88 | 1006.9 |
| 20260506165242 | 59 | 51 | 3.0 | 7.0 | 0.08 | 0.68 | 0.66 | 85 | 1006.8 |
| 20260506164242 | 61 | 82 | 3.0 | 7.0 | 0.01 | 0.61 | 0.60 | 78 | 1006.5 |
| 20260506163244 | 62 | 69 | 3.0 | 8.0 | 0.00 | 0.61 | 0.59 | 74 | 1006.3 |
| 20260506160242 | 64 | 11 | 3.0 | 8.0 | 0.00 | 0.63 | 0.59 | 70 | 1006.4 |
| 20260506154240 | 64 | 71 | 3.0 | 7.0 | 0.00 | 0.65 | 0.59 | 70 | 1006.3 |
| 20260506153239 | 65 | 100 | 4.0 | 11.0 | 0.00 | 0.65 | 0.59 | 70 | 1006.4 |
| 20260506151244 | 64 | 91 | 4.0 | 10.0 | 0.00 | 0.65 | 0.59 | 70 | 1006.6 |
| 20260506150239 | 65 | 94 | 4.0 | 8.0 | 0.00 | 0.65 | 0.59 | 70 | 1006.7 |
| 20260506145233 | 65 | 44 | 4.0 | 8.0 | 0.00 | 0.65 | 0.59 | 69 | 1006.9 |
| 20260506144233 | 65 | 75 | 3.0 | 7.0 | 0.00 | 0.65 | 0.59 | 71 | 1007.0 |
| 20260506143234 | 64 | 355 | 4.0 | 10.0 | 0.00 | 0.65 | 0.59 | 72 | 1007.2 |
| 20260506142232 | 63 | 55 | 3.0 | 8.0 | 0.00 | 0.65 | 0.59 | 74 | 1007.5 |
| 20260506141232 | 62 | 5 | 4.0 | 9.0 | 0.00 | 0.65 | 0.59 | 76 | 1007.7 |
| 20260506140232 | 61 | 76 | 3.0 | 8.0 | 0.00 | 0.65 | 0.59 | 82 | 1007.9 |
| 20260506135234 | 60 | 53 | 4.0 | 9.0 | 0.00 | 0.65 | 0.59 | 81 | 1008.0 |
| 20260506133230 | 60 | 69 | 3.0 | 7.0 | 0.00 | 0.65 | 0.59 | 81 | 1008.1 |
| 20260506132230 | 60 | 53 | 3.0 | 9.0 | 0.00 | 0.65 | 0.59 | 85 | 1008.1 |
| 20260506131230 | 59 | 350 | 5.0 | 13.0 | 0.00 | 0.65 | 0.59 | 85 | 1008.1 |
| 20260506130230 | 59 | 36 | 7.0 | 14.0 | 0.00 | 0.65 | 0.59 | 85 | 1008.2 |
| 20260506125230 | 59 | 52 | 4.0 | 10.0 | 0.00 | 0.65 | 0.59 | 85 | 1008.4 |
| 20260506124229 | 58 | 64 | 3.0 | 8.0 | 0.00 | 0.65 | 0.59 | 89 | 1008.6 |
| 20260506123230 | 57 | 15 | 3.0 | 6.0 | 0.01 | 0.65 | 0.59 | 91 | 1008.9 |
| 20260506122228 | 56 | 90 | 2.0 | 6.0 | 0.02 | 0.65 | 0.59 | 92 | 1008.9 |
| 20260506121228 | 56 | 44 | 2.0 | 4.0 | 0.07 | 0.65 | 0.59 | 92 | 1008.9 |
| 20260506120229 | 56 | 12 | 1.0 | 3.0 | 0.11 | 0.65 | 0.59 | 93 | 1008.9 |
| 20260506115232 | 55 | 117 | 2.0 | 4.0 | 0.11 | 0.65 | 0.59 | 93 | 1009.0 |
| 20260506114228 | 55 | 220 | 1.0 | 3.0 | 0.11 | 0.65 | 0.59 | 93 | 1009.1 |
| 20260506113228 | 55 | 264 | 1.0 | 3.0 | 0.11 | 0.64 | 0.58 | 93 | 1009.1 |
| 20260506112229 | 55 | 240 | 3.0 | 5.0 | 0.13 | 0.63 | 0.57 | 93 | 1009.0 |
| 20260506111230 | 56 | 244 | 4.0 | 10.0 | 0.09 | 0.57 | 0.51 | 92 | 1008.9 |
| 20260506110229 | 56 | 257 | 2.0 | 9.0 | 0.06 | 0.54 | 0.48 | 92 | 1008.9 |
| 20260506105228 | 56 | 191 | 1.0 | 2.0 | 0.07 | 0.54 | 0.48 | 92 | 1008.9 |
| 20260506104228 | 56 | 317 | 1.0 | 2.0 | 0.07 | 0.54 | 0.48 | 92 | 1008.8 |
| 20260506103228 | 56 | 295 | 1.0 | 6.0 | 0.06 | 0.53 | 0.47 | 92 | 1008.8 |
| 20260506102228 | 56 | 233 | 4.0 | 9.0 | 0.03 | 0.50 | 0.44 | 92 | 1009.0 |
| 20260506100235 | 58 | 291 | 1.0 | 4.0 | 0.01 | 0.48 | 0.42 | 88 | 1008.5 |
| 20260506094227 | 58 | 81 | 3.0 | 6.0 | 0.00 | 0.49 | 0.41 | 87 | 1008.3 |
| 20260506092225 | 57 | 19 | 2.0 | 4.0 | 0.00 | 0.50 | 0.41 | 89 | 1008.5 |
| 20260506090226 | 57 | 5 | 2.0 | 4.0 | 0.00 | 0.51 | 0.41 | 92 | 1008.9 |
| 20260506085225 | 57 | 45 | 1.0 | 3.0 | 0.00 | 0.51 | 0.41 | 90 | 1008.8 |
| 20260506084224 | 57 | 102 | 3.0 | 6.0 | 0.02 | 0.51 | 0.41 | 89 | 1008.7 |
| 20260506083223 | 57 | 96 | 3.0 | 7.0 | 0.03 | 0.51 | 0.41 | 91 | 1008.7 |
| 20260506082224 | 56 | 86 | 3.0 | 8.0 | 0.05 | 0.51 | 0.41 | 92 | 1008.9 |
| 20260506081223 | 56 | 31 | 2.0 | 5.0 | 0.06 | 0.51 | 0.41 | 93 | 1008.9 |
| 20260506080223 | 55 | 9 | 3.0 | 5.0 | 0.08 | 0.51 | 0.41 | 93 | 1008.8 |
| 20260506073220 | 55 | 88 | 4.0 | 8.0 | 0.10 | 0.48 | 0.38 | 94 | 1009.1 |
| 20260506072220 | 55 | 94 | 3.0 | 7.0 | 0.12 | 0.46 | 0.36 | 94 | 1009.3 |
| 20260506071220 | 55 | 57 | 3.0 | 7.0 | 0.14 | 0.46 | 0.35 | 95 | 1009.4 |
| 20260506070219 | 55 | 68 | 2.0 | 4.0 | 0.14 | 0.43 | 0.33 | 95 | 1009.3 |